リニア-カタリナ彗星

329P/LINEAR-Catalina (2004)

English version
Home page
Updated on December 6, 2015

---------------------------------------------------------------------

・ プロフィール

符号 329P/2003 WC7
発見日 2003年11月18日, 2004年1月31日
発見光度 19.6等, 17.6等
発見者 Lincoln Laboratory Near-Earth Asteroid Research project, Catalina Sky Survey

・ 軌道要素

Epoch 2004 Feb. 5.0 TT = JDT 2453040.5
T 2004 Feb. 5.74590 TT                                  MPCW
q   1.6548921            (2000.0)            P               Q
n   0.08343065     Peri.  341.05753     +0.30445859     -0.88107630
a   5.1870327      Node    89.88788     +0.91398835     +0.16323459
e   0.6809559      Incl.   21.22019     +0.26819817     +0.44391330
P  11.8
From 115 observations 2003 Nov. 18-2015 Oct. 12, mean residual 0".6.

・ 星図

・ 光度変化

        m1 = 9.5 + 5 logΔ + 30 log r(t - 30)

---------------------------------------------------------------------

軌道要素はM.P.E.C. 2015-T72に掲載されたものです。
星図は StellaNavigator Ver.2.0 for Windows (アストロアーツ 編著 / アスキー出版局刊) で作成したものです。
光度グラフはComet for Windowsで作成したものです。

---------------------------------------------------------------------

Copyright(C) Seiichi Yoshida (comet@aerith.net). All rights reserved.